Starlink 11353

operational
NORAD ID: 61941 Int'l Des: 2024-209 Owner: SPXS Country: US Constellation: starlink
LEOCIRCULAR

About Starlink 11353

Description loading...

Live Position

Loading 3D Globe...

Upcoming Passes

Altitude History

Altitude vs Time

uPlot chart will show altitude changes over time

Two-Line Element Set

1 61941U 24209C 25258.41524659 .00491869 00000-0 37997-2 0 9990
2 61941 53.1567 154.9670 0000847 277.7296 82.3626 15.69894008 49157
Epoch: Sep 15, 2025 • Age: 13 hours

Current Status

Altitude 358.3 km
Velocity 7.70 km/s
Sub-Earth Point 15.65°N, 17.89°W
Launch Date Nov 14, 2024
Age 0.8 years
Type internet

Technical Details

Classification Payload
Mass 960.00 kg
Dry Mass 910.00 kg
Total Mass 960.00 kg
Length 0.30 m
Diameter 4.10 m
Span 29.00 m
Shape Box + pan
Manufacturer SPXS
Bus Type Starlink V2MD
Phase Status In Orbit
Owner/State SPXS/US

Large Constellations

Loading constellations...